When you browse on this site, cookies collect data to enhance your experience and personalize the content and advertising you see.
Visit our Privacy Policy to learn more. By continuing to use the site, you agree to this use of cookies and data.
  • In Hungary
  • List of Countries
  • For 7 days
  • Water Temperature
  • Weather Map
  • News
  • Weather Widgets
  • user-avatar
    Login

    Hourly Weather Cashiers

    Today, 19 November, Tuesday

    Time Temperature Precipitation Wind Pressure Humidity
    00:00 +2°C° 0 mm 1 mps 660 mmHg 79%
    01:00 +2°C° 0 mm 1 mps 660 mmHg 80%
    02:00 +2°C° 0 mm 1 mps 660 mmHg 81%
    03:00 +2°C° 0 mm 1 mps 660 mmHg 82%
    04:00 +2°C° 0 mm 1 mps 660 mmHg 84%
    05:00 +1°C° 0 mm 1 mps 661 mmHg 86%
    06:00 +1°C° 0 mm 1 mps 661 mmHg 88%
    07:00 +3°C° 0 mm 1 mps 662 mmHg 79%
    08:00 +5°C° 0 mm 1 mps 662 mmHg 70%
    09:00 +6°C° 0 mm 0 mps 663 mmHg 61%
    10:00 +8°C° 0 mm 1 mps 663 mmHg 55%
    11:00 +9°C° 0 mm 1 mps 663 mmHg 48%
    12:00 +9°C° 0 mm 2 mps 663 mmHg 41%
    13:00 +9°C° 0 mm 2 mps 663 mmHg 44%
    14:00 +9°C° 0 mm 2 mps 663 mmHg 48%
    15:00 +8°C° 0 mm 2 mps 663 mmHg 52%
    16:00 +7°C° 0 mm 2 mps 663 mmHg 59%
    17:00 +7°C° 0 mm 1 mps 663 mmHg 66%
    18:00 +5°C° 0 mm 1 mps 664 mmHg 74%
    19:00 +5°C° 0 mm 1 mps 664 mmHg 78%
    20:00 +4°C° 0 mm 1 mps 664 mmHg 82%
    21:00 +4°C° 0 mm 1 mps 664 mmHg 86%
    22:00 +4°C° 0 mm 1 mps 664 mmHg 88%
    23:00 +4°C° 0 mm 1 mps 664 mmHg 90%

    Tomorrow, 20 November, Wednesday

    Time Temperature Precipitation Wind Pressure Humidity
    00:00 +3°C° 0 mm 1 mps 664 mmHg 92%
    01:00 +3°C° 0 mm 1 mps 664 mmHg 92%
    02:00 +3°C° 0 mm 1 mps 665 mmHg 92%
    03:00 +2°C° 0 mm 1 mps 665 mmHg 93%
    04:00 +2°C° 0 mm 1 mps 666 mmHg 93%
    05:00 +2°C° 0 mm 1 mps 666 mmHg 93%
    06:00 +1°C° 0 mm 1 mps 667 mmHg 93%
    07:00 +3°C° 0 mm 1 mps 668 mmHg 84%
    08:00 +5°C° 0 mm 1 mps 669 mmHg 75%
    09:00 +7°C° 0 mm 1 mps 670 mmHg 66%
    10:00 +9°C° 0 mm 1 mps 670 mmHg 60%
    11:00 +11°C° 0 mm 1 mps 670 mmHg 54%
    12:00 +12°C° 0 mm 1 mps 670 mmHg 47%
    13:00 +12°C° 0 mm 1 mps 670 mmHg 48%
    14:00 +11°C° 0 mm 1 mps 670 mmHg 50%
    15:00 +11°C° 0 mm 1 mps 670 mmHg 51%
    16:00 +9°C° 0 mm 1 mps 670 mmHg 58%
    17:00 +7°C° 0 mm 1 mps 670 mmHg 65%
    18:00 +5°C° 0 mm 1 mps 670 mmHg 72%
    19:00 +5°C° 0 mm 1 mps 670 mmHg 71%
    20:00 +5°C° 0 mm 1 mps 670 mmHg 70%
    21:00 +4°C° 0 mm 0 mps 671 mmHg 69%
    22:00 +4°C° 0 mm 0 mps 671 mmHg 68%
    23:00 +4°C° 0 mm 0 mps 671 mmHg 66%

    Day after tomorrow, 21 November, Thursday

    Time Temperature Precipitation Wind Pressure Humidity
    00:00 +3°C° 0 mm 0 mps 670 mmHg 65%
    01:00 +3°C° 0 mm 0 mps 670 mmHg 63%
    02:00 +3°C° 0 mm 0 mps 670 mmHg 61%
    03:00 +3°C° 0 mm 0 mps 670 mmHg 59%
    04:00 +3°C° 0 mm 0 mps 670 mmHg 59%
    05:00 +3°C° 0 mm 0 mps 670 mmHg 58%
    06:00 +3°C° 0 mm 0 mps 670 mmHg 58%
    07:00 +5°C° 0 mm 0 mps 671 mmHg 57%
    08:00 +8°C° 0 mm 1 mps 672 mmHg 55%
    09:00 +10°C° 0 mm 1 mps 672 mmHg 53%
    10:00 +12°C° 0 mm 1 mps 672 mmHg 51%
    11:00 +13°C° 0 mm 1 mps 672 mmHg 50%
    12:00 +14°C° 0 mm 2 mps 672 mmHg 48%
    13:00 +14°C° 0 mm 2 mps 672 mmHg 51%
    14:00 +13°C° 0 mm 2 mps 671 mmHg 55%
    15:00 +13°C° 0 mm 2 mps 671 mmHg 59%
    16:00 +11°C° 0 mm 1 mps 670 mmHg 67%
    17:00 +8°C° 0 mm 1 mps 670 mmHg 76%
    18:00 +6°C° 0 mm 1 mps 670 mmHg 84%
    19:00 +6°C° 0 mm 1 mps 669 mmHg 83%
    20:00 +6°C° 0 mm 1 mps 669 mmHg 81%
    21:00 +6°C° 0 mm 1 mps 669 mmHg 80%
    22:00 +6°C° 0 mm 1 mps 669 mmHg 80%
    23:00 +6°C° 0 mm 1 mps 669 mmHg 79%

    22 November, Friday

    Time Temperature Precipitation Wind Pressure Humidity
    00:00 +5°C° 0 mm 1 mps 669 mmHg 79%
    01:00 +6°C° 0 mm 1 mps 668 mmHg 77%
    02:00 +6°C° 0 mm 1 mps 668 mmHg 75%
    03:00 +6°C° 0 mm 1 mps 668 mmHg 72%
    04:00 +6°C° 0 mm 1 mps 668 mmHg 71%
    05:00 +6°C° 0 mm 1 mps 668 mmHg 70%
    06:00 +6°C° 0 mm 1 mps 668 mmHg 68%
    07:00 +7°C° 0 mm 1 mps 669 mmHg 66%
    08:00 +9°C° 0 mm 1 mps 669 mmHg 65%
    09:00 +10°C° 0 mm 1 mps 669 mmHg 63%
    10:00 +10°C° 0 mm 1 mps 669 mmHg 65%
    11:00 +10°C° 0 mm 1 mps 668 mmHg 67%
    12:00 +10°C° 0 mm 1 mps 668 mmHg 69%
    13:00 +11°C° 0 mm 1 mps 668 mmHg 67%
    14:00 +12°C° 0 mm 1 mps 668 mmHg 65%
    15:00 +12°C° 0 mm 1 mps 668 mmHg 64%
    16:00 +11°C° 0 mm 1 mps 667 mmHg 69%
    17:00 +10°C° 0 mm 1 mps 667 mmHg 75%
    18:00 +9°C° 0 mm 1 mps 667 mmHg 81%
    19:00 +9°C° 0 mm 1 mps 667 mmHg 83%
    20:00 +8°C° 0 mm 1 mps 666 mmHg 86%
    21:00 +8°C° 0 mm 1 mps 666 mmHg 88%
    22:00 +8°C° 0.6 mm 1 mps 666 mmHg 91%
    23:00 +9°C° 0.6 mm 1 mps 665 mmHg 94%

    23 November, Saturday

    Time Temperature Precipitation Wind Pressure Humidity
    00:00 +9°C° 0.6 mm 1 mps 665 mmHg 97%
    01:00 +9°C° 0.4 mm 1 mps 665 mmHg 97%
    02:00 +9°C° 0.4 mm 1 mps 664 mmHg 98%
    03:00 +10°C° 0.4 mm 1 mps 664 mmHg 98%
    04:00 +10°C° 1.2 mm 1 mps 664 mmHg 99%
    05:00 +10°C° 1.2 mm 1 mps 664 mmHg 99%
    06:00 +10°C° 1.2 mm 1 mps 664 mmHg 99%
    07:00 +11°C° 0.6 mm 1 mps 664 mmHg 98%
    08:00 +10°C° 0.6 mm 2 mps 664 mmHg 96%
    09:00 +12°C° 0.6 mm 2 mps 664 mmHg 95%
    10:00 +12°C° 0.3 mm 2 mps 664 mmHg 93%
    11:00 +13°C° 0.3 mm 2 mps 664 mmHg 91%
    12:00 +12°C° 0.3 mm 3 mps 664 mmHg 88%
    13:00 +12°C° 0 mm 3 mps 664 mmHg 82%
    14:00 +12°C° 0 mm 3 mps 664 mmHg 77%
    15:00 +12°C° 0 mm 3 mps 663 mmHg 71%
    16:00 +10°C° 0 mm 2 mps 663 mmHg 77%
    17:00 +8°C° 0 mm 2 mps 663 mmHg 83%
    18:00 +6°C° 0 mm 2 mps 663 mmHg 89%
    19:00 +5°C° 0 mm 2 mps 663 mmHg 90%
    20:00 +4°C° 0 mm 2 mps 663 mmHg 90%
    21:00 +4°C° 0 mm 2 mps 663 mmHg 91%
    22:00 +3°C° 0 mm 2 mps 663 mmHg 91%
    23:00 +3°C° 0 mm 2 mps 662 mmHg 91%

    24 November, Sunday

    Time Temperature Precipitation Wind Pressure Humidity
    00:00 +2°C° 0 mm 2 mps 662 mmHg 92%
    01:00 +3°C° 0 mm 1 mps 662 mmHg 92%
    02:00 +2°C° 0 mm 1 mps 662 mmHg 92%
    03:00 +2°C° 0 mm 1 mps 662 mmHg 92%
    04:00 +2°C° 0 mm 1 mps 662 mmHg 91%
    05:00 +2°C° 0 mm 1 mps 662 mmHg 90%
    06:00 +2°C° 0 mm 1 mps 663 mmHg 89%
    07:00 +4°C° 0 mm 1 mps 663 mmHg 82%
    08:00 +5°C° 0 mm 1 mps 664 mmHg 75%
    09:00 +6°C° 0 mm 1 mps 665 mmHg 68%
    10:00 +7°C° 0 mm 1 mps 665 mmHg 65%
    11:00 +8°C° 0 mm 1 mps 665 mmHg 61%
    12:00 +9°C° 0 mm 1 mps 665 mmHg 58%
    13:00 +8°C° 0 mm 1 mps 664 mmHg 60%
    14:00 +8°C° 0 mm 1 mps 664 mmHg 62%
    15:00 +7°C° 0 mm 1 mps 664 mmHg 63%
    16:00 +5°C° 0 mm 1 mps 664 mmHg 71%
    17:00 +3°C° 0 mm 1 mps 663 mmHg 78%
    18:00 +2°C° 0 mm 1 mps 663 mmHg 85%
    19:00 +1°C° 0 mm 1 mps 663 mmHg 87%
    20:00 +1°C° 0 mm 1 mps 663 mmHg 88%
    21:00 0°C° 0 mm 1 mps 663 mmHg 89%
    22:00 0°C° 0 mm 1 mps 663 mmHg 89%
    23:00 0°C° 0 mm 1 mps 663 mmHg 89%
    Show more